TimeCST,TemperatureF,Dew PointF,Humidity,Sea Level PressureIn,VisibilityMPH,Wind Direction,Wind SpeedMPH,Gust SpeedMPH,PrecipitationIn,Events,Conditions,WindDirDegrees,DateUTC
12:15 AM,43.2,29.7,59,30.25,10.0,ESE,3.5,-,N/A,,Clear,110,2014-01-22 06:15:00
12:35 AM,41.9,29.3,61,30.25,10.0,Calm,Calm,-,N/A,,Clear,0,2014-01-22 06:35:00
12:55 AM,42.3,27.3,56,30.25,10.0,WSW,5.8,-,N/A,,Clear,240,2014-01-22 06:55:00
1:15 AM,42.3,28.0,57,30.25,10.0,West,4.6,-,N/A,,Clear,260,2014-01-22 07:15:00
1:35 AM,42.1,27.3,56,30.24,10.0,Calm,Calm,-,N/A,,Clear,0,2014-01-22 07:35:00
1:55 AM,39.7,28.4,64,30.24,10.0,WSW,3.5,-,N/A,,Clear,240,2014-01-22 07:55:00
2:15 AM,40.5,27.9,61,30.24,10.0,Calm,Calm,-,N/A,,Clear,0,2014-01-22 08:15:00
2:35 AM,40.6,27.5,59,30.23,10.0,Calm,Calm,-,N/A,,Clear,0,2014-01-22 08:35:00
2:55 AM,40.1,28.4,63,30.22,10.0,Calm,Calm,-,N/A,,Clear,0,2014-01-22 08:55:00
3:15 AM,39.2,28.0,64,30.22,10.0,Calm,Calm,-,N/A,,Clear,0,2014-01-22 09:15:00
3:35 AM,38.7,28.4,67,30.22,10.0,Calm,Calm,-,N/A,,Clear,0,2014-01-22 09:35:00
3:55 AM,37.0,29.5,74,30.22,10.0,Calm,Calm,-,N/A,,Clear,0,2014-01-22 09:55:00
4:15 AM,36.5,29.3,75,30.21,10.0,WSW,4.6,-,N/A,,Clear,240,2014-01-22 10:15:00
4:35 AM,36.5,27.3,69,30.22,10.0,SW,3.5,-,N/A,,Clear,230,2014-01-22 10:35:00
4:55 AM,37.4,27.1,66,30.21,10.0,Calm,Calm,-,N/A,,Clear,0,2014-01-22 10:55:00
5:15 AM,37.0,27.5,68,30.21,10.0,Calm,Calm,-,N/A,,Clear,0,2014-01-22 11:15:00
5:35 AM,36.7,26.4,66,30.20,10.0,Calm,Calm,-,N/A,,Clear,0,2014-01-22 11:35:00
5:55 AM,35.8,26.4,69,30.21,10.0,Calm,Calm,-,N/A,,Clear,0,2014-01-22 11:55:00
6:15 AM,35.2,26.6,71,30.21,10.0,Calm,Calm,-,N/A,,Clear,0,2014-01-22 12:15:00
6:35 AM,35.8,27.1,71,30.20,10.0,Calm,Calm,-,N/A,,Clear,0,2014-01-22 12:35:00
6:55 AM,36.0,26.6,69,30.20,10.0,Calm,Calm,-,N/A,,Clear,0,2014-01-22 12:55:00
7:15 AM,34.9,27.1,73,30.21,10.0,WSW,3.5,-,N/A,,Clear,250,2014-01-22 13:15:00
7:35 AM,34.0,27.0,75,30.21,10.0,Calm,Calm,-,N/A,,Clear,0,2014-01-22 13:35:00
7:55 AM,35.2,27.5,73,30.21,10.0,WSW,4.6,-,N/A,,Clear,240,2014-01-22 13:55:00
8:15 AM,37.0,28.6,71,30.21,10.0,Calm,Calm,-,N/A,,Clear,0,2014-01-22 14:15:00
8:35 AM,41.0,30.4,66,30.21,10.0,Calm,Calm,-,N/A,,Clear,0,2014-01-22 14:35:00
8:55 AM,46.6,32.7,59,30.21,10.0,SSW,4.6,-,N/A,,Clear,210,2014-01-22 14:55:00
9:15 AM,51.4,34.7,53,30.22,10.0,SW,5.8,-,N/A,,Clear,220,2014-01-22 15:15:00
9:35 AM,56.5,34.7,44,30.22,10.0,SSW,6.9,-,N/A,,Clear,210,2014-01-22 15:35:00
9:55 AM,60.4,33.3,36,30.22,10.0,SSW,9.2,-,N/A,,Clear,200,2014-01-22 15:55:00
10:15 AM,63.1,33.3,33,30.22,10.0,South,9.2,-,N/A,,Clear,190,2014-01-22 16:15:00
10:35 AM,65.3,32.0,29,30.22,10.0,SSE,12.7,16.1,N/A,,Clear,150,2014-01-22 16:35:00
10:55 AM,67.6,29.3,24,30.21,10.0,SSE,12.7,-,N/A,,Clear,160,2014-01-22 16:55:00
11:15 AM,68.0,28.4,23,30.21,10.0,SSE,12.7,-,N/A,,Clear,160,2014-01-22 17:15:00
11:35 AM,68.9,27.3,21,30.20,10.0,SSE,12.7,16.1,N/A,,Clear,150,2014-01-22 17:35:00
11:55 AM,69.8,28.6,22,30.19,10.0,South,11.5,18.4,N/A,,Clear,190,2014-01-22 17:55:00
12:15 PM,70.5,29.3,22,30.16,10.0,SSE,10.4,16.1,N/A,,Clear,150,2014-01-22 18:15:00
12:35 PM,70.9,29.5,22,30.15,10.0,SSE,9.2,-,N/A,,Clear,150,2014-01-22 18:35:00
12:55 PM,72.0,31.5,22,30.13,10.0,South,9.2,17.3,N/A,,Clear,170,2014-01-22 18:55:00
1:15 PM,72.5,32.0,23,30.10,10.0,SSE,9.2,-,N/A,,Clear,150,2014-01-22 19:15:00
1:35 PM,72.9,32.5,23,30.09,10.0,SE,9.2,17.3,N/A,,Clear,130,2014-01-22 19:35:00
1:55 PM,73.6,32.9,23,30.07,10.0,South,10.4,19.6,N/A,,Clear,180,2014-01-22 19:55:00
2:15 PM,74.3,30.9,20,30.05,10.0,SSE,12.7,-,N/A,,Clear,150,2014-01-22 20:15:00
2:35 PM,74.5,31.5,21,30.04,10.0,SE,11.5,19.6,N/A,,Clear,130,2014-01-22 20:35:00
2:55 PM,75.6,32.0,20,30.03,10.0,SSE,13.8,20.7,N/A,,Clear,150,2014-01-22 20:55:00
3:15 PM,75.4,33.8,22,30.01,10.0,SSE,12.7,21.9,N/A,,Clear,160,2014-01-22 21:15:00
3:35 PM,75.2,32.4,21,30.01,10.0,SSE,15.0,21.9,N/A,,Clear,150,2014-01-22 21:35:00
3:55 PM,75.4,33.4,22,30.00,10.0,SSE,15.0,-,N/A,,Clear,160,2014-01-22 21:55:00
4:15 PM,75.2,33.4,22,30.00,10.0,SSE,12.7,20.7,N/A,,Clear,150,2014-01-22 22:15:00
4:35 PM,75.2,36.3,24,30.00,10.0,SSE,12.7,-,N/A,,Clear,160,2014-01-22 22:35:00
4:55 PM,75.6,35.4,23,30.00,10.0,SE,11.5,18.4,N/A,,Clear,140,2014-01-22 22:55:00
5:15 PM,74.5,36.7,25,29.99,10.0,SSE,15.0,-,N/A,,Clear,160,2014-01-22 23:15:00
5:35 PM,73.2,35.8,26,29.99,10.0,SSE,10.4,-,N/A,,Clear,160,2014-01-22 23:35:00
5:55 PM,71.8,35.6,27,29.99,10.0,SSE,10.4,-,N/A,,Clear,160,2014-01-22 23:55:00
6:15 PM,70.0,37.8,31,29.99,10.0,SSE,6.9,-,N/A,,Clear,150,2014-01-23 00:15:00
6:35 PM,67.3,38.7,35,29.99,10.0,SSE,6.9,-,N/A,,Clear,150,2014-01-23 00:35:00
6:55 PM,65.5,39.6,39,29.99,10.0,ESE,5.8,-,N/A,,Clear,110,2014-01-23 00:55:00
7:15 PM,65.3,47.7,53,30.00,10.0,SE,6.9,-,N/A,,Clear,130,2014-01-23 01:15:00
7:35 PM,64.2,50.9,62,30.00,10.0,ESE,6.9,-,N/A,,Clear,120,2014-01-23 01:35:00
7:55 PM,63.5,51.8,66,30.01,10.0,ESE,5.8,-,N/A,,Clear,120,2014-01-23 01:55:00
8:15 PM,63.5,52.5,67,30.00,10.0,SE,8.1,-,N/A,,Clear,130,2014-01-23 02:15:00
8:35 PM,62.6,52.7,70,30.01,10.0,SE,8.1,-,N/A,,Clear,140,2014-01-23 02:35:00
8:55 PM,62.1,53.1,72,30.02,10.0,SE,6.9,-,N/A,,Clear,140,2014-01-23 02:55:00
9:15 PM,61.2,53.2,75,30.01,10.0,SE,4.6,-,N/A,,Clear,130,2014-01-23 03:15:00
9:35 PM,60.1,53.2,78,30.01,10.0,ESE,3.5,-,N/A,,Clear,120,2014-01-23 03:35:00
9:55 PM,59.0,53.1,81,30.02,10.0,ESE,3.5,-,N/A,,Clear,110,2014-01-23 03:55:00
10:15 PM,57.7,53.1,84,30.02,10.0,ESE,4.6,-,N/A,,Clear,110,2014-01-23 04:15:00
10:35 PM,57.6,53.2,85,30.02,10.0,East,4.6,-,N/A,,Clear,90,2014-01-23 04:35:00
10:55 PM,57.7,53.4,85,30.02,10.0,ESE,4.6,-,N/A,,Clear,120,2014-01-23 04:55:00
11:15 PM,56.8,53.2,88,30.02,10.0,East,3.5,-,N/A,,Clear,90,2014-01-23 05:15:00
11:35 PM,56.7,53.6,89,30.01,10.0,ESE,3.5,-,N/A,,Clear,110,2014-01-23 05:35:00
11:55 PM,56.1,53.4,91,30.01,10.0,ESE,3.5,-,N/A,,Clear,120,2014-01-23 05:55:00